When you browse on this site, cookies collect data to enhance your experience and personalize the content and advertising you see.
Visit our Privacy Policy to learn more. By continuing to use the site, you agree to this use of cookies and data.
  • In Schweiz
  • Länderverzeichnis
  • Für 7 Tage
  • Wassertemperatur
  • Wetterkarte
  • Widgets
  • user-avatar
    Anmelden

    Stündliche Wetter Melilla

    Heute, 29 Januar, Mittwoch

    Zeit Temperatur Niederschläge Wind Luftdruck Luftfeuchtigkeit
    00:00 +13°C° 0 mm 1 m/S 768 mmHg 69%
    01:00 +13°C° 0 mm 1 m/S 768 mmHg 68%
    02:00 +13°C° 0 mm 1 m/S 768 mmHg 68%
    03:00 +13°C° 0 mm 1 m/S 767 mmHg 67%
    04:00 +13°C° 0 mm 1 m/S 767 mmHg 67%
    05:00 +13°C° 0 mm 1 m/S 768 mmHg 67%
    06:00 +12°C° 0 mm 1 m/S 768 mmHg 68%
    07:00 +14°C° 0 mm 1 m/S 768 mmHg 62%
    08:00 +16°C° 0 mm 1 m/S 768 mmHg 57%
    09:00 +18°C° 0 mm 1 m/S 768 mmHg 52%
    10:00 +20°C° 0 mm 1 m/S 768 mmHg 47%
    11:00 +21°C° 0 mm 1 m/S 768 mmHg 42%
    12:00 +22°C° 0 mm 1 m/S 768 mmHg 37%
    13:00 +22°C° 0 mm 1 m/S 768 mmHg 38%
    14:00 +21°C° 0 mm 2 m/S 767 mmHg 40%
    15:00 +21°C° 0 mm 2 m/S 767 mmHg 41%
    16:00 +19°C° 0 mm 2 m/S 767 mmHg 49%
    17:00 +18°C° 0 mm 2 m/S 767 mmHg 57%
    18:00 +16°C° 0 mm 2 m/S 768 mmHg 65%
    19:00 +16°C° 0 mm 2 m/S 768 mmHg 64%
    20:00 +16°C° 0 mm 2 m/S 768 mmHg 63%
    21:00 +15°C° 0 mm 2 m/S 769 mmHg 62%
    22:00 +15°C° 0 mm 2 m/S 769 mmHg 61%
    23:00 +15°C° 0 mm 1 m/S 769 mmHg 60%

    Morgen, 30 Januar, Donnerstag

    Zeit Temperatur Niederschläge Wind Luftdruck Luftfeuchtigkeit
    00:00 +15°C° 0 mm 1 m/S 769 mmHg 59%
    01:00 +15°C° 0 mm 1 m/S 768 mmHg 58%
    02:00 +15°C° 0 mm 1 m/S 768 mmHg 57%
    03:00 +15°C° 0 mm 1 m/S 768 mmHg 56%
    04:00 +14°C° 0 mm 2 m/S 768 mmHg 56%
    05:00 +14°C° 0 mm 2 m/S 768 mmHg 56%
    06:00 +14°C° 0 mm 2 m/S 768 mmHg 56%
    07:00 +15°C° 0 mm 2 m/S 768 mmHg 54%
    08:00 +17°C° 0 mm 2 m/S 768 mmHg 52%
    09:00 +18°C° 0 mm 3 m/S 768 mmHg 50%
    10:00 +19°C° 0 mm 3 m/S 768 mmHg 47%
    11:00 +20°C° 0 mm 3 m/S 768 mmHg 44%
    12:00 +21°C° 0 mm 3 m/S 768 mmHg 41%
    13:00 +21°C° 0 mm 3 m/S 768 mmHg 41%
    14:00 +21°C° 0 mm 3 m/S 767 mmHg 41%
    15:00 +22°C° 0 mm 3 m/S 767 mmHg 41%
    16:00 +20°C° 0 mm 3 m/S 767 mmHg 48%
    17:00 +18°C° 0 mm 3 m/S 767 mmHg 55%
    18:00 +16°C° 0 mm 3 m/S 767 mmHg 62%
    19:00 +16°C° 0 mm 3 m/S 768 mmHg 60%
    20:00 +16°C° 0 mm 3 m/S 768 mmHg 58%
    21:00 +16°C° 0 mm 3 m/S 768 mmHg 55%
    22:00 +14°C° 0 mm 3 m/S 768 mmHg 54%
    23:00 +14°C° 0 mm 3 m/S 768 mmHg 53%

    übermorgen, 31 Januar, Freitag

    Zeit Temperatur Niederschläge Wind Luftdruck Luftfeuchtigkeit
    00:00 +14°C° 0 mm 3 m/S 768 mmHg 52%
    01:00 +14°C° 0 mm 3 m/S 768 mmHg 53%
    02:00 +14°C° 0 mm 4 m/S 768 mmHg 54%
    03:00 +13°C° 0 mm 4 m/S 768 mmHg 55%
    04:00 +13°C° 0 mm 3 m/S 767 mmHg 55%
    05:00 +13°C° 0 mm 3 m/S 767 mmHg 56%
    06:00 +13°C° 0 mm 3 m/S 767 mmHg 56%
    07:00 +14°C° 0 mm 3 m/S 767 mmHg 53%
    08:00 +17°C° 0 mm 2 m/S 768 mmHg 50%
    09:00 +18°C° 0 mm 2 m/S 768 mmHg 48%
    10:00 +19°C° 0 mm 2 m/S 768 mmHg 44%
    11:00 +21°C° 0 mm 2 m/S 768 mmHg 39%
    12:00 +23°C° 0 mm 2 m/S 768 mmHg 35%
    13:00 +22°C° 0 mm 3 m/S 767 mmHg 35%
    14:00 +22°C° 0 mm 3 m/S 767 mmHg 35%
    15:00 +22°C° 0 mm 3 m/S 767 mmHg 35%
    16:00 +20°C° 0 mm 3 m/S 767 mmHg 42%
    17:00 +18°C° 0 mm 2 m/S 767 mmHg 49%
    18:00 +17°C° 0 mm 2 m/S 767 mmHg 56%
    19:00 +16°C° 0 mm 2 m/S 767 mmHg 55%
    20:00 +16°C° 0 mm 2 m/S 767 mmHg 54%
    21:00 +15°C° 0 mm 1 m/S 768 mmHg 53%
    22:00 +15°C° 0 mm 1 m/S 768 mmHg 53%
    23:00 +15°C° 0 mm 1 m/S 768 mmHg 52%

    1 Februar, Samstag

    Zeit Temperatur Niederschläge Wind Luftdruck Luftfeuchtigkeit
    00:00 +15°C° 0 mm 1 m/S 768 mmHg 52%
    01:00 +15°C° 0 mm 1 m/S 768 mmHg 51%
    02:00 +15°C° 0 mm 1 m/S 767 mmHg 50%
    03:00 +15°C° 0 mm 2 m/S 767 mmHg 50%
    04:00 +14°C° 0 mm 2 m/S 767 mmHg 50%
    05:00 +14°C° 0 mm 2 m/S 767 mmHg 50%
    06:00 +14°C° 0 mm 2 m/S 767 mmHg 50%
    07:00 +16°C° 0 mm 2 m/S 767 mmHg 49%
    08:00 +17°C° 0 mm 2 m/S 768 mmHg 48%
    09:00 +19°C° 0 mm 2 m/S 768 mmHg 46%
    10:00 +20°C° 0 mm 2 m/S 768 mmHg 42%
    11:00 +21°C° 0 mm 2 m/S 768 mmHg 39%
    12:00 +23°C° 0 mm 2 m/S 768 mmHg 35%
    13:00 +23°C° 0 mm 2 m/S 768 mmHg 35%
    14:00 +24°C° 0 mm 1 m/S 768 mmHg 34%
    15:00 +24°C° 0 mm 1 m/S 767 mmHg 34%
    16:00 +22°C° 0 mm 1 m/S 767 mmHg 41%
    17:00 +21°C° 0 mm 1 m/S 767 mmHg 48%
    18:00 +19°C° 0 mm 1 m/S 767 mmHg 54%
    19:00 +18°C° 0 mm 1 m/S 768 mmHg 55%
    20:00 +18°C° 0 mm 1 m/S 768 mmHg 55%
    21:00 +18°C° 0 mm 1 m/S 769 mmHg 56%
    22:00 +16°C° 0 mm 1 m/S 769 mmHg 55%
    23:00 +16°C° 0 mm 1 m/S 769 mmHg 54%

    2 Februar, Sonntag

    Zeit Temperatur Niederschläge Wind Luftdruck Luftfeuchtigkeit
    00:00 +16°C° 0 mm 2 m/S 769 mmHg 54%
    01:00 +16°C° 0 mm 2 m/S 769 mmHg 54%
    02:00 +16°C° 0 mm 2 m/S 769 mmHg 53%
    03:00 +15°C° 0 mm 2 m/S 769 mmHg 53%
    04:00 +15°C° 0 mm 2 m/S 769 mmHg 53%
    05:00 +14°C° 0 mm 3 m/S 769 mmHg 53%
    06:00 +14°C° 0 mm 3 m/S 769 mmHg 53%
    07:00 +17°C° 0 mm 3 m/S 769 mmHg 51%
    08:00 +18°C° 0 mm 3 m/S 770 mmHg 49%
    09:00 +20°C° 0 mm 3 m/S 770 mmHg 47%
    10:00 +21°C° 0 mm 3 m/S 770 mmHg 44%
    11:00 +22°C° 0 mm 3 m/S 770 mmHg 41%
    12:00 +25°C° 0 mm 3 m/S 770 mmHg 38%
    13:00 +25°C° 0 mm 3 m/S 769 mmHg 39%
    14:00 +25°C° 0 mm 4 m/S 769 mmHg 39%
    15:00 +25°C° 0 mm 4 m/S 769 mmHg 40%
    16:00 +22°C° 0 mm 4 m/S 769 mmHg 48%
    17:00 +20°C° 0 mm 4 m/S 769 mmHg 55%
    18:00 +18°C° 0 mm 4 m/S 769 mmHg 63%
    19:00 +18°C° 0 mm 4 m/S 769 mmHg 65%
    20:00 +17°C° 0 mm 3 m/S 770 mmHg 66%
    21:00 +17°C° 0 mm 3 m/S 770 mmHg 67%
    22:00 +17°C° 0 mm 3 m/S 770 mmHg 67%
    23:00 +17°C° 0 mm 3 m/S 770 mmHg 67%

    3 Februar, Montag

    Zeit Temperatur Niederschläge Wind Luftdruck Luftfeuchtigkeit
    00:00 +16°C° 0 mm 2 m/S 770 mmHg 68%
    01:00 +16°C° 0 mm 2 m/S 769 mmHg 69%
    02:00 +16°C° 0 mm 2 m/S 769 mmHg 69%
    03:00 +15°C° 0 mm 1 m/S 769 mmHg 70%
    04:00 +15°C° 0 mm 1 m/S 769 mmHg 72%
    05:00 +15°C° 0 mm 1 m/S 769 mmHg 73%
    06:00 +14°C° 0 mm 1 m/S 768 mmHg 75%
    07:00 +16°C° 0 mm 1 m/S 769 mmHg 68%
    08:00 +19°C° 0 mm 1 m/S 769 mmHg 61%
    09:00 +20°C° 0 mm 1 m/S 770 mmHg 55%
    10:00 +22°C° 0 mm 1 m/S 769 mmHg 51%
    11:00 +23°C° 0 mm 1 m/S 769 mmHg 47%
    12:00 +24°C° 0 mm 1 m/S 769 mmHg 43%
    13:00 +24°C° 0 mm 2 m/S 769 mmHg 44%
    14:00 +24°C° 0 mm 2 m/S 768 mmHg 46%
    15:00 +24°C° 0 mm 2 m/S 768 mmHg 47%
    16:00 +21°C° 0 mm 2 m/S 768 mmHg 55%
    17:00 +20°C° 0 mm 2 m/S 768 mmHg 64%
    18:00 +18°C° 0 mm 2 m/S 768 mmHg 72%
    19:00 +17°C° 0 mm 2 m/S 769 mmHg 74%
    20:00 +17°C° 0 mm 2 m/S 769 mmHg 76%
    21:00 +16°C° 0 mm 1 m/S 769 mmHg 78%
    22:00 +16°C° 0 mm 1 m/S 769 mmHg 77%
    23:00 +16°C° 0 mm 1 m/S 769 mmHg 77%
    Mehr zeigen